Regional Weather Roundup
Issued by NWS

Home | Current Version | Previous Version | Graphics & Text | Print | Product List | Glossary On
Versions: 1 2 3 4 5 6 7 8 9 10 11 12 13 14 15 16 17 18 19 20 21 22 23 24 25 26 27 28 29 30 31 32 33 34 35 36 37 38 39 40 41 42 43 44 45 46 47 48 49 50
261
ASUS43 KIND 231209
RWRIN

WEATHER ROUNDUP FOR INDIANA
NATIONAL WEATHER SERVICE INDIANAPOLIS IN
700 AM EST THU FEB 23 2017

NOTE: "FAIR" INDICATES FEW OR NO CLOUDS BELOW 12,000 FEET WITH NO
SIGNIFICANT WEATHER AND/OR OBSTRUCTIONS TO VISIBILITY.

* - STATION DOES NOT REPORT WEATHER SUCH AS PRECIPITATION OR FOG.

+ - STATION NOT QUALITY CONTROLLED BY THE NATIONAL WEATHER SERVICE.
    USE DATA WITH CAUTION...ESPECIALLY DEWPOINT AND RELATIVE
    HUMIDITY OBSERVATIONS.

INZ001>003-010>013-019-020-231300-
NORTHWEST INDIANA

CITY           SKY/WX    TMP DP  RH WIND       PRES   REMARKS
GARY /AIRPORT/ CLEAR     43  41  93 W5        29.72R
KNOX *+          N/A     43  36  75 CALM      29.72R VSB<1/4
LA PORTE +       N/A     39  38  99 CALM      29.73R
6HR MIN TEMP:  39; 6HR MAX TEMP:  55;

MICHIGAN CITY+ CLEAR     50  46  87 W5        29.73R
MONTICELLO +   CLEAR     47  46  95 CALM      29.74R FOG
6HR MIN TEMP:  47; 6HR MAX TEMP:  57;

RENSSELAER +   FOG       46  46 100 CALM      29.74R VSB 1/4
VALPARAISO     FOG       45  45 100 SW3       29.73R VSB 1/4
6HR MIN TEMP:  45; 6HR MAX TEMP:  58;


$$

LMZ046-743>745-231300-
SOUTHERN LAKE MICHIGAN

STATION/POSITION TIME  TEMP    WIND        PRES    WAVE
                       AIR SEA DIR/SP/G            HT
                 (UTC) (F)     (DEG/KT/KT) (MB)    (FT)
BURNS HARBOR     1140   47     250/  5/  8 1007.1R
MICHIGAN CITY    1140   46     230/ 11/ 11   N/A

$$

INZ004-005-014>016-021>024-231300-
NORTH CENTRAL INDIANA

CITY           SKY/WX    TMP DP  RH WIND       PRES   REMARKS
ELKHART        CLEAR     48  46  93 W5        29.71  FOG
GOSHEN         CLEAR     48  45  89 S5        29.71S FOG
6HR MIN TEMP:  48; 6HR MAX TEMP:  58;

LOGANSPORT +   CLEAR     46  46 100 W6        29.74S FOG
PERU/GRISSOM   CLEAR     49  49 100 SW9       29.72R
6HR MIN TEMP:  49; 6HR MAX TEMP:  56;

ROCHESTER +    CLEAR     52  52 100 W5        29.73S FOG
SOUTH BEND     FOG       45  45 100 W5        29.73R VSB 1/4
6HR MIN TEMP:  46; 6HR MAX TEMP:  59;

WARSAW +       CLEAR     50  50 100 W7        29.72S

$$

INZ006>009-017-018-025>027-231300-
NORTHEAST INDIANA

CITY           SKY/WX    TMP DP  RH WIND       PRES   REMARKS
ANGOLA *+      CLEAR     54  45  71 W5        29.70S
AUBURN +       CLEAR     52  50  93 CALM      29.72R
FORT WAYNE     PTCLDY    52  50  93 SW8       29.72S
6HR MIN TEMP:  52; 6HR MAX TEMP:  57;

HUNTINGTON +   PTCLDY    51  50  96 SW3       29.73R
6HR MIN TEMP:  51; 6HR MAX TEMP:  57;

KENDALLVILLE + CLEAR     51  51  97 W7        29.71S

$$

INZ028-029-035-036-043>045-051>053-231300-
WEST CENTRAL INDIANA

CITY           SKY/WX    TMP DP  RH WIND       PRES   REMARKS
LAFAYETTE      CLEAR     50  50 100 W5        29.74R FOG
6HR MIN TEMP:  50; 6HR MAX TEMP:  58;

TERRE HAUTE    FOG       48  47  96 S3        29.76S VSB 3/4
6HR MIN TEMP:  48; 6HR MAX TEMP:  58;


$$

INZ030>032-037>040-046>048-054>057-064-065-231300-
CENTRAL INDIANA

CITY           SKY/WX    TMP DP  RH WIND       PRES   REMARKS
CP ATTERBURY +   N/A     48  46  93 CALM      29.78S VSB 3/4
COLUMBUS       CLEAR     52  52 100 S7        29.78
FISHERS *+     CLEAR     52  52 100 CALM      29.76
FRANKFORT +    CLEAR     53  51  95 SW8       29.76R FOG
6HR MIN TEMP:  53; 6HR MAX TEMP:  58;

GREENWOOD *+   PTCLDY    53  53  99 CALM      29.77F
6HR MIN TEMP:  53; 6HR MAX TEMP:  56;

INDIANAPOLIS   MOCLDY    53  52  96 SW7       29.76S
6HR MIN TEMP:  53; 6HR MAX TEMP:  58;

-EAGLE CREEK   CLEAR     54  51  90 SW3       29.75S FOG
6HR MIN TEMP:  51; 6HR MAX TEMP:  56;

KOKOMO +       CLEAR     50  49  96 SW7       29.75R
6HR MIN TEMP:  50; 6HR MAX TEMP:  57;

MARION +       CLEAR     50  49  97 SW8       29.75S FOG
MT COMFORT *+  PTCLDY    52  50  93 S5        29.76S
SHELBYVILLE    MOCLDY    56  52  86 S10       29.76F
6HR MIN TEMP:  54; 6HR MAX TEMP:  58;

ZIONSVILLE +   CLEAR     52  51  97 SW7       29.76S FOG
6HR MIN TEMP:  50; 6HR MAX TEMP:  55;


$$

INZ033-034-041-042-049-050-058-059-231300-
EAST CENTRAL INDIANA

CITY           SKY/WX    TMP DP  RH WIND       PRES   REMARKS
MUNCIE         CLEAR     58  54  86 SW9       29.75R
6HR MIN TEMP:  57; 6HR MAX TEMP:  59;


$$

INZ060-061-067>069-081>083-085>088-231300-
SOUTHWEST INDIANA

CITY           SKY/WX    TMP DP  RH WIND       PRES   REMARKS
EVANSVILLE     CLEAR     54  52  93 CALM      29.80S
6HR MIN TEMP:  54; 6HR MAX TEMP:  60;

HUNTINGBURG *+ CLOUDY    55  54  94 S5        29.81S
6HR MIN TEMP:  54; 6HR MAX TEMP:  59;

WASHINGTON +   CLOUDY    54  52  94 S5        29.79R
6HR MIN TEMP:  53; 6HR MAX TEMP:  58;


$$

INZ062-063-066-070>080-084-089>092-231300-
SOUTH CENTRAL AND SOUTHEAST INDIANA

CITY           SKY/WX    TMP DP  RH WIND       PRES   REMARKS
BEDFORD +      PTCLDY   N/A N/A N/A S6        29.78F
BLOOMINGTON    PTCLDY    58  53  84 SW7       29.78R
6HR MIN TEMP:  57; 6HR MAX TEMP:  60;

MADISON *+     CLOUDY    57  54  88 S5        29.83S
NORTH VERNON + PTCLDY   N/A N/A N/A S7        29.80S
SEYMOUR +      MOCLDY    55  54  94 S5        29.79S

$$





USA.gov is the U.S. government's official web portal to all federal, state and local government web resources and services.